This is the latest recevied weather packets stored in our database for station/object SR6NWB-11. If no packets are shown the sender has not sent any weather packets the latest 1 day(s).
| Time | Temp. | Humidity | Pressure | Rain* | Wind** | Luminosity | Snow |
|---|---|---|---|---|---|---|---|
| 1778013487 | 12.78° C | 90% | 1011.7 hPa | 0 mm | 0 m/s | - | - |
| 1778012987 | 12.78° C | 89% | 1011.7 hPa | 0 mm | 0 m/s | - | - |
| 1778012407 | 13.33° C | 89% | 1011.7 hPa | 0 mm | 0 m/s | - | - |
| 1778011927 | 13.33° C | 89% | 1011.7 hPa | 0 mm | 0 m/s | - | - |
| 1778011433 | 13.33° C | 89% | 1011.6 hPa | 0 mm | 0 m/s | - | - |
| 1778010913 | 13.33° C | 89% | 1011.6 hPa | 0 mm | 0 m/s | - | - |
| 1778010317 | 13.33° C | 87% | 1011.6 hPa | 0 mm | 0 m/s | - | - |
| 1778009772 | 13.33° C | 86% | 1011.6 hPa | 0 mm | 0 m/s | - | - |
| 1778009267 | 13.89° C | 85% | 1011.5 hPa | 0 mm | 0 m/s | - | - |
| 1778008720 | 13.89° C | 84% | 1011.7 hPa | 0 mm | 0 m/s | - | - |
| 1778008127 | 13.89° C | 83% | 1011.7 hPa | 0 mm | 0 m/s | - | - |
| 1778007592 | 14.44° C | 82% | 1011.7 hPa | 0 mm | 0 m/s | - | - |
| 1778007037 | 14.44° C | 81% | 1011.7 hPa | 0 mm | 0 m/s | - | - |
| 1778006462 | 14.44° C | 79% | 1011.6 hPa | 0 mm | 0 m/s | - | - |
| 1778005897 | 15° C | 78% | 1011.7 hPa | 0 mm | 0 m/s | - | - |
| 1778005402 | 15° C | 76% | 1011.8 hPa | 0 mm | 0 m/s | - | - |
| 1778004827 | 15° C | 75% | 1011.8 hPa | 0 mm | 0 m/s | - | - |
| 1778004287 | 15.56° C | 74% | 1011.8 hPa | 0 mm | 0 m/s | - | - |
| 1778003727 | 15.56° C | 71% | 1012 hPa | 0 mm | 0 m/s | - | - |
| 1778003152 | 16.11° C | 69% | 1012 hPa | 0 mm | 0 m/s | - | - |
| 1778002627 | 16.67° C | 68% | 1011.9 hPa | 0 mm | 0 m/s | - | - |
| 1778002028 | 16.67° C | 65% | 1012 hPa | 0 mm | 0 m/s | - | - |
| 1778001527 | 16.67° C | 62% | 1011.9 hPa | 0 mm | 0 m/s | - | - |
| 1778000967 | 17.78° C | 55% | 1011.8 hPa | 0 mm | 0 m/s | - | - |
| 1778000467 | 18.33° C | 49% | 1012.1 hPa | 0 mm | 0 m/s | - | - |
* Rain latest hour (hover to see other rain measurements)
** Current wind speed in m/s (hover to see current wind gust speed)